TimeCDT,TemperatureF,Dew PointF,Humidity,Sea Level PressureIn,VisibilityMPH,Wind Direction,Wind SpeedMPH,Gust SpeedMPH,PrecipitationIn,Events,Conditions,WindDirDegrees,DateUTC
12:53 AM,66.9,60.1,79,29.94,10.0,WNW,3.5,-,N/A,,Clear,300,2012-10-02 05:53:00
1:53 AM,66.9,60.1,79,29.94,10.0,NW,3.5,-,N/A,,Clear,320,2012-10-02 06:53:00
2:53 AM,66.0,60.1,81,29.94,10.0,Calm,Calm,-,N/A,,Clear,0,2012-10-02 07:53:00
3:53 AM,64.9,59.0,81,29.94,10.0,West,3.5,-,N/A,,Clear,270,2012-10-02 08:53:00
4:53 AM,63.0,57.9,84,29.94,10.0,West,5.8,-,N/A,,Clear,280,2012-10-02 09:53:00
5:53 AM,64.0,57.0,78,29.96,10.0,WNW,4.6,-,N/A,,Clear,300,2012-10-02 10:53:00
6:53 AM,63.0,57.0,81,29.98,10.0,NW,4.6,-,N/A,,Clear,310,2012-10-02 11:53:00
7:53 AM,61.0,57.0,87,30.00,10.0,NW,5.8,-,N/A,,Clear,320,2012-10-02 12:53:00
8:53 AM,66.0,59.0,78,30.01,10.0,West,5.8,-,N/A,,Clear,280,2012-10-02 13:53:00
9:53 AM,71.1,55.9,59,30.03,10.0,NNW,6.9,-,N/A,,Clear,330,2012-10-02 14:53:00
10:53 AM,73.9,57.0,55,30.03,10.0,WNW,6.9,-,N/A,,Clear,300,2012-10-02 15:53:00
11:53 AM,77.0,55.0,47,30.02,10.0,WNW,6.9,-,N/A,,Clear,300,2012-10-02 16:53:00
12:53 PM,80.1,52.0,38,30.00,10.0,NNW,8.1,-,N/A,,Clear,330,2012-10-02 17:53:00
1:53 PM,82.0,51.1,34,29.96,10.0,NW,6.9,-,N/A,,Clear,310,2012-10-02 18:53:00
2:53 PM,82.0,51.1,34,29.93,10.0,Variable,6.9,-,N/A,,Clear,0,2012-10-02 19:53:00
3:53 PM,82.9,50.0,32,29.91,10.0,WNW,10.4,-,N/A,,Clear,290,2012-10-02 20:53:00
4:53 PM,84.9,50.0,30,29.89,10.0,West,8.1,-,N/A,,Clear,280,2012-10-02 21:53:00
5:53 PM,84.0,48.9,29,29.88,10.0,NNW,3.5,-,N/A,,Clear,330,2012-10-02 22:53:00
6:53 PM,84.0,48.0,28,29.87,10.0,Calm,Calm,-,N/A,,Clear,0,2012-10-02 23:53:00
7:53 PM,79.0,52.0,39,29.88,10.0,Calm,Calm,-,N/A,,Clear,0,2012-10-03 00:53:00
8:53 PM,73.0,55.9,55,29.89,10.0,Calm,Calm,-,N/A,,Clear,0,2012-10-03 01:53:00
9:53 PM,73.0,55.0,53,29.91,10.0,East,6.9,-,N/A,,Clear,90,2012-10-03 02:53:00
10:53 PM,72.0,54.0,53,29.92,10.0,ESE,4.6,-,N/A,,Clear,110,2012-10-03 03:53:00
11:53 PM,70.0,54.0,57,29.92,10.0,East,6.9,-,N/A,,Clear,100,2012-10-03 04:53:00